Hilton Head Island, SC

8:08 AM EST on February 11, 2016 (GMT -0500)
Hilton Head

Weather History for KHXD - January, 2012

Change the Weather History Date:

Saturday, January 28, 2012

  Actual Average Record
Temperature  
Mean Temperature 54 °F -  
Max Temperature 66 °F 60 °F 59 °F (2014)
Min Temperature 41 °F 37 °F 33 °F (2014)
Degree Days  
Heating Degree Days 12    
Growing Degree Days 4 (Base 50)    
Moisture  
Dew Point 42 °F    
Average Humidity 79    
Maximum Humidity 100    
Minimum Humidity 32    
Precipitation  
Precipitation 0.00 in - - ()
Sea Level Pressure  
Sea Level Pressure 30.14 in    
Wind  
Wind Speed 2 mph (West)    
Max Wind Speed 12 mph    
Max Gust Speed 20 mph    
Visibility 10 miles    
Events      
Averages and records for this station are not official NWS values.
T = Trace of Precipitation, MM = Missing Value Source: NWS Daily Summary

Daily Weather History Graph

Daily Weather History Graph

Search for Another Location

Airport or City:

Trip Planner

Search our weather history database for the weather conditions in past years. The results will help you decide how hot, cold, wet, or windy it might be!

Date:

Astronomy

Jan. 28, 2012 Rise Set
Actual Time 7:19 AM EST 5:52 PM EST
Civil Twilight 6:53 AM EST 6:18 PM EST
Nautical Twilight 6:24 AM EST 6:47 PM EST
Astronomical Twilight 5:54 AM EST 7:16 PM EST
Moon 10:03 AM EST (1/28) 11:14 PM EST (1/28)
Length of Visible Light 11h 24m
Length of Day
10h 32m
Waxing Crescent, 27% of the Moon is Illuminated
Jan 28
Waxing Crescent
Jan 30
First Quarter
Feb 7
Full
Feb 14
Last Quarter
Feb 21
New

Hourly Weather History & Observations

Time (EST) Temp. Windchill Dew Point Humidity Pressure Visibility Wind Dir Wind Speed Gust Speed Precip Events Conditions
12:15 AM 46.4 °F - 44.6 °F 93% 30.08 in 10.0 mi Calm Calm - 0.00 in   Clear
12:35 AM 46.4 °F - 44.6 °F 93% 30.07 in 10.0 mi Calm Calm - 0.00 in   Clear
12:55 AM 44.6 °F - 44.6 °F 100% 30.07 in 10.0 mi Calm Calm - 0.00 in   Clear
1:15 AM 44.6 °F - 44.6 °F 100% 30.07 in 10.0 mi Calm Calm - 0.00 in   Clear
1:35 AM 44.6 °F - 42.8 °F 93% 30.07 in 10.0 mi Calm Calm - 0.00 in   Clear
1:55 AM 44.6 °F - 42.8 °F 93% 30.08 in 10.0 mi Calm Calm - 0.00 in   Clear
2:15 AM 44.6 °F - 42.8 °F 93% 30.08 in 10.0 mi Calm Calm - 0.00 in   Clear
2:35 AM 44.6 °F - 42.8 °F 93% 30.08 in 10.0 mi Calm Calm - 0.00 in   Clear
3:15 AM 42.8 °F 41.1 °F 42.8 °F 100% 30.09 in 10.0 mi West 3.5 mph - 0.00 in   Clear
3:35 AM 42.8 °F 41.1 °F 42.8 °F 100% 30.09 in 10.0 mi West 3.5 mph - 0.00 in   Clear
4:15 AM 42.8 °F 41.1 °F 42.8 °F 100% 30.10 in 10.0 mi West 3.5 mph - 0.00 in   Clear
4:35 AM 42.8 °F 41.1 °F 42.8 °F 100% 30.09 in 10.0 mi West 3.5 mph - 0.00 in   Clear
5:15 AM 42.8 °F - 42.8 °F 100% 30.10 in 10.0 mi Calm Calm - 0.00 in   Clear
5:35 AM 42.8 °F 41.1 °F 42.8 °F 100% 30.10 in 10.0 mi West 3.5 mph - 0.00 in   Clear
7:00 AM 41.0 °F - 41.0 °F 100% 30.14 in 10.0 mi Calm Calm - N/A   Clear
7:50 AM 42.8 °F - 41.0 °F 93% 30.16 in 10.0 mi Calm Calm - N/A   Clear
8:50 AM 50.0 °F - 44.6 °F 82% 30.18 in 10.0 mi WNW 3.5 mph - N/A   Clear
9:50 AM 55.4 °F - 44.6 °F 67% 30.19 in 10.0 mi NW 4.6 mph - N/A   Clear
10:50 AM 59.0 °F - 41.0 °F 51% 30.19 in 10.0 mi NW 8.1 mph - N/A   Clear
11:48 AM 62.6 °F - 41.0 °F 45% 30.18 in 10.0 mi WNW 8.1 mph - N/A   Clear
12:50 PM 64.4 °F - 39.2 °F 40% 30.14 in 10.0 mi West 10.4 mph 17.3 mph N/A   Clear
2:50 PM 66.2 °F - 37.4 °F 35% 30.10 in 10.0 mi West 4.6 mph - N/A   Clear
3:50 PM 66.2 °F - 35.6 °F 32% 30.11 in 10.0 mi WNW 11.5 mph 19.6 mph N/A   Clear
4:50 PM 66.2 °F - 35.6 °F 32% 30.12 in 10.0 mi WNW 6.9 mph - N/A   Clear
5:52 PM 62.6 °F - 37.4 °F 39% 30.13 in 10.0 mi West 3.5 mph - N/A   Clear
6:53 PM 53.6 °F - 41.0 °F 62% 30.16 in 10.0 mi Calm Calm - N/A   Clear
7:50 PM 51.8 °F - 41.0 °F 67% 30.10 in 10.0 mi Calm Calm - N/A   Clear
8:15 PM 50.0 °F - 41.0 °F 71% 30.19 in 10.0 mi Calm Calm - 0.00 in   Clear
8:35 PM 50.0 °F - 41.0 °F 71% 30.19 in 10.0 mi Calm Calm - 0.00 in   Clear
8:55 PM 48.2 °F - 41.0 °F 76% 30.19 in 10.0 mi West 3.5 mph - 0.00 in   Clear
9:15 PM 48.2 °F - 41.0 °F 76% 30.20 in 10.0 mi West 3.5 mph - 0.00 in   Clear
9:35 PM 48.2 °F - 41.0 °F 76% 30.20 in 10.0 mi Calm Calm - 0.00 in   Clear
9:55 PM 48.2 °F - 42.8 °F 82% 30.20 in 10.0 mi Calm Calm - 0.00 in   Clear
10:15 PM 48.2 °F - 42.8 °F 82% 30.21 in 10.0 mi SSW 3.5 mph - 0.00 in   Clear
10:35 PM 46.4 °F - 42.8 °F 87% 30.21 in 9.0 mi Calm Calm - 0.00 in   Clear
10:55 PM 46.4 °F - 42.8 °F 87% 30.21 in 10.0 mi Calm Calm - 0.00 in   Clear
11:15 PM 46.4 °F - 42.8 °F 87% 30.21 in 10.0 mi Calm Calm - 0.00 in   Clear
11:35 PM 46.4 °F - 42.8 °F 87% 30.21 in 10.0 mi Calm Calm - 0.00 in   Clear
11:55 PM 46.4 °F 44.3 °F 42.8 °F 87% 30.22 in 10.0 mi WSW 4.6 mph - 0.00 in   Clear